User: anonymous   Login
Location: Unspecified
(0.0000°N, 0.0000°E)
Time: 16:10:20
(UTC+01:00)
Language:

Cosmos 1536 - Orbit

View from above orbital plane
View from above orbital plane
View from above satellite
View from above satellite

Ground track
Ground track

The orbit data is extracted from the following two-line orbital elements,

1 14699U 84013A   14303.09495457  .00002990  00000-0  22158-3 0  2207
2 14699 082.5279 178.9353 0015140 090.4039 269.8921 15.02691210668606
Epoch (UTC): 30 October 2014 02:16:44
Eccentricity: 0.0015140
inclination: 82.5279°
perigee height: 548 km
apogee height: 569 km
right ascension of ascending node: 178.9353°
argument of perigee: 90.4039°
revolutions per day: 15.02691210
mean anomaly at epoch: 269.8921°
orbit number at epoch: 66860

The dashed part of the orbit path shows where the satellite is in the earth's shadow,  

DLR